OneWeb SL0131

operational
NORAD ID: 47270 Int'l Des: 2020-100 Owner: ONEWEB Country: UK Constellation: oneweb
LEOCIRCULARPOLARONEWEB_TYPE

Über OneWeb SL0131

Beschreibung wird geladen...

Live-Position

3D-Globus wird geladen...

Nächste Überflüge

Höhenverlauf

Altitude vs Time

uPlot chart will show altitude changes over time

Zweizeiliger Elementsatz

1 47270U 20100N 25258.36143983 -.00000206 00000-0 -60708-3 0 9996
2 47270 87.8905 45.2856 0001652 90.1081 270.0236 13.12444865228529
Epoch: 15. Sept. 2025 • Age: 23 hours

Aktueller Status

Höhe 1243.4 km
Geschwindigkeit 7.23 km/s
Subsatellitenpunkt -82.13°S, 86.44°W
Startdatum 18. Dez. 2020
Alter 4.7 years
Typ internet

Technische Details

Klassifizierung Payload
Masse 148.00 kg
Trockenmasse 140.00 kg
Gesamtmasse 148.00 kg
Länge 1.30 m
Durchmesser 1.00 m
Spannweite 5.00 m
Form Trapezoid+2 pan
Hersteller ONEWUS
Bus-Typ ARROW
Phasenstatus In Orbit
Besitzer/Staat ONEWEB/UK

Große Konstellationen

Loading constellations...